Location: Newark
(40.3500°N, 15.2333°E)
Time: 05:13:07
(UTC+00:00)

Altair - Pass Details

Date: 19 January 2020
Orbit: 1502 x 1682 km, 47.2° (Epoch: 19 February)

Event Time Altitude Azimuth Distance (km) Brightness Sun altitude
Rises 08:13:23 0° 217° (SW) 4,875 10.3 16.7°
Reaches altitude 10° 08:16:35 10° 213° (SSW) 3,906 9.9 17.1°
Maximum altitude 08:26:19 56° 139° (SE) 1,940 9.1 18.3°
Drops below altitude 10° 08:36:06 10° 65° (ENE) 3,938 9.9 19.5°
Sets 08:39:19 0° 61° (ENE) 4,918 10.3 19.9°
